Weather observations for the past three days for
College Station, Easterwood Field
Imperial (Metric)
Date Time (cdt) Wind (mph) Vis. (mi.) Weather Sky Cond. Temperature (ºF) Relative Humidity Wind Chill (°F) Heat Index (°F) Pressure Precipitation (in)
Air Dwpt 6 hour altimeter (in) sea level (mb) 1 hr 3 hr 6 hr
Max. Min.
24 21:53 S 8 10.00 Fair CLR 86 75.9 72% 96 29.9 1011.8
24 20:53 SE 7 10.00 Fair CLR 87.1 77 72% 99 29.88 1011.3
24 19:53 S 9 10.00 A Few Clouds FEW070 90 75.9 63% 102 29.88 1011.3
24 18:53 SE 13 10.00 Overcast BKN044 BKN055 OVC100 91 75.9 96.1 91 61% 103 29.88 1011.1
24 17:53 SE 13 G 20 10.00 Mostly Cloudy SCT047 BKN065 96.1 75.9 52% 110 29.88 1011.2
24 16:53 SE 12 G 20 10.00 A Few Clouds FEW045 95 75 53% 107 29.89 1011.7
24 15:53 S 10 10.00 Fair CLR 95 73 49% 105 29.91 1012.3
24 14:53 S 10 G 17 10.00 A Few Clouds FEW044 95 73.9 51% 106 29.93 1013.0
24 13:53 S 9 10.00 Mostly Cloudy SCT037 BKN045 93 75 56% 104 29.95 1013.7
24 12:53 S 9 10.00 A Few Clouds FEW043 91 75.9 91 78.1 61% 103 29.97 1014.4
24 11:53 SE 9 10.00 Partly Cloudy FEW030 SCT036 SCT046 90 75.9 63% 102 29.98 1014.5
24 10:53 S 8 10.00 Partly Cloudy FEW026 SCT035 87.1 75.9 70% 98 29.98 1014.8
24 09:53 SE 5 10.00 A Few Clouds FEW019 86 75.9 72% 96 29.98 1014.7
24 08:53 S 3 10.00 Fair CLR 82.9 77 82% 92 29.98 1014.7
24 07:53 S 3 10.00 Fair CLR 80.1 75.9 87% 85 29.97 1014.1
24 06:53 Calm 10.00 Fair CLR 78.1 75.9 82.9 77 93% 81 29.95 1013.6
24 05:53 S 3 10.00 Fair CLR 78.1 75 90% 81 29.93 1013.0
24 04:53 S 3 10.00 Fair CLR 78.1 75 90% 81 29.93 1012.9
24 03:53 S 3 10.00 Fair CLR 80.1 75 85% 85 29.93 1012.9
24 02:53 Calm 10.00 Fair CLR 81 75.9 85% 87 29.93 1013.0
24 01:53 S 3 10.00 Fair CLR 81 75.9 85% 87 29.94 1013.2
24 00:53 S 5 10.00 Fair CLR 82.9 75.9 93.9 82.9 79% 91 29.94 1013.4
23 23:53 S 8 10.00 Fair CLR 84 77 80% 94 29.95 1013.5
23 22:53 S 5 10.00 A Few Clouds FEW065 84.9 75.9 75% 94 29.93 1013.0
23 21:53 S 7 10.00 Partly Cloudy SCT055 87.1 73.9 65% 95 29.91 1012.4
23 20:53 SE 5 10.00 Fair CLR 89.1 71.1 55% 95 29.89 1011.6
23 19:53 SE 5 10.00 Fair CLR 91 70 50% 97 29.89 1011.7
23 18:53 E 5 10.00 Fair CLR 93 70 95 89.1 47% 99 29.89 1011.6
23 17:53 E 5 10.00 Partly Cloudy SCT050 93.9 71.1 48% 101 29.89 1011.7
23 16:53 S 7 10.00 Mostly Cloudy SCT049 BKN060 93.9 72 49% 102 29.91 1012.4
23 15:53 SE 9 10.00 Partly Cloudy FEW047 SCT060 93 73 52% 102 29.93 1012.9
23 14:53 S 9 10.00 Fair CLR 91.9 72 52% 100 29.95 1013.6
23 13:53 Calm 10.00 Fair CLR 93 75 56% 104 29.97 1014.3
23 12:53 S 7 10.00 Fair CLR 90 70 90 75.9 52% 95 29.98 1014.8
23 11:53 Vrbl 3 10.00 Fair CLR 88 68 52% 92 30 1015.2
23 10:53 Vrbl 3 10.00 Fair CLR 86 70 59% 91 30.01 1015.5
23 09:53 SE 7 10.00 Fair CLR 82.9 73 72% 89 30.01 1015.5
23 08:53 S 3 10.00 Fair CLR 80.1 73 79% 84 30.01 1015.7
23 07:53 Calm 10.00 Fair CLR 79 73 82% 82 30 1015.3
23 06:53 Calm 10.00 Fair CLR 75 71.1 79 75 88% 75 29.99 1014.9
23 05:53 Calm 10.00 Fair CLR 75.9 71.1 85% 76 29.98 1014.6
23 04:53 Calm 10.00 Fair CLR 75 71.1 88% 75 29.97 1014.3
23 03:53 Calm 10.00 Fair CLR 77 71.1 82% 79 29.98 1014.5
23 02:53 Calm 10.00 Fair CLR 77 71.1 82% 79 29.98 1014.7
23 01:53 S 3 10.00 Fair CLR 78.1 71.1 79% 80 30 1015.2
23 00:53 S 6 10.00 Fair CLR 79 72 91.9 79 79% 82 30.01 1015.5
22 23:53 S 7 10.00 Fair CLR 81 72 74% 85 30.01 1015.6
22 22:53 S 9 10.00 Fair CLR 82.9 73 72% 89 30 1015.2
22 21:53 S 3 10.00 Fair CLR 86 73 65% 93 29.98 1014.7
22 20:53 S 3 10.00 Fair CLR 87.1 73 63% 95 29.96 1014.1
22 19:53 S 5 10.00 Fair CLR 90 73 58% 98 29.96 1013.9
22 18:53 S 10 10.00 Fair CLR 91.9 71.1 93 89.1 51% 99 29.95 1013.8
22 17:53 S 8 10.00 A Few Clouds FEW065 93 71.1 49% 100 29.96 1014.0
22 16:53 S 6 10.00 A Few Clouds FEW055 93 72 50% 101 29.97 1014.3
22 15:53 S 7 10.00 Mostly Cloudy BKN047 BKN055 91 72 54% 99 29.99 1014.9
22 14:53 Calm 10.00 Partly Cloudy SCT045 91 72 54% 99 30.01 1015.6
22 13:53 SE 9 10.00 A Few Clouds FEW045 91 72 54% 99 30.03 1016.3
22 12:53 S 6 10.00 A Few Clouds FEW039 90 72 90 75 56% 97 30.05 1016.9
22 11:53 S 6 10.00 Fair CLR 88 73 61% 96 30.07 1017.7
22 10:53 Calm 10.00 Fair CLR 86 73.9 67% 94 30.07 1017.8
22 09:53 S 5 10.00 Partly Cloudy SCT016 82.9 75 77% 90 30.08 1018.1
22 08:53 S 6 10.00 A Few Clouds FEW011 81 75.9 85% 87 30.08 1018.0
22 07:53 Calm 10.00 Fair CLR 78.1 75 90% 81 30.08 1018.2
22 06:53 Calm 10.00 Fair CLR 75 73 79 75 94% 73 30.08 1018.1
22 05:53 Calm 10.00 Fair CLR 75.9 73.9 94% 75 30.08 1018.0
22 04:53 Calm 10.00 Fair CLR 75.9 73 91% 76 30.07 1017.7
22 03:53 Calm 10.00 Fair CLR 77 73.9 90% 78 30.07 1017.6
22 02:53 Calm 10.00 Fair CLR 77 73.9 90% 78 30.07 1017.8
22 01:53 Calm 10.00 Fair CLR 78.1 75 90% 81 30.08 1018.2
22 00:53 SE 7 10.00 Fair CLR 79 75 91 79 88% 83 30.08 1017.9 0.04
21 23:53 SE 7 10.00 Fair CLR 80.1 75 85% 85 30.08 1018.0
21 22:53 SE 7 10.00 Fair CLR 81 75 82% 87 30.08 1017.9
Date Time (cdt) Wind (mph) Vis. (mi.) Weather Sky Cond. Air Dwpt Max. Min. Relative Humidity Wind Chill (°F) Heat Index (°F) altimeter (in) sea level (mb) 1 hr 3 hr 6 hr
6 hour
Temperature (ºF) Pressure Precipitation (in)